When you browse on this site, cookies collect data to enhance your experience and personalize the content and advertising you see.
Visit our Privacy Policy to learn more. By continuing to use the site, you agree to this use of cookies and data.
  • In Österreich
  • Länderverzeichnis
  • Für 7 Tage
  • Wassertemperatur
  • Satellitenkarten
  • Wetterkarte
  • News
  • Widgets
  • user-avatar
    Anmelden

    Stündliche Wetter Prutz

    Heute, 10 Dezember, Montag

    Zeit Temperatur Niederschläge Wind Luftdruck Luftfeuchtigkeit
    00:00 -2°C° 1.7 mm 3 m/S 628 mmHg 95%
    01:00 -4°C° 1.7 mm 4 m/S 629 mmHg 95%
    02:00 -4°C° 1 mm 4 m/S 629 mmHg 95%
    03:00 -4°C° 1 mm 3 m/S 629 mmHg 95%
    04:00 -5°C° 1 mm 3 m/S 630 mmHg 94%
    05:00 -5°C° 0.6 mm 3 m/S 630 mmHg 94%
    06:00 -6°C° 0.6 mm 3 m/S 630 mmHg 94%
    07:00 -6°C° 0.6 mm 3 m/S 630 mmHg 94%
    08:00 -6°C° 0.5 mm 3 m/S 630 mmHg 93%
    09:00 -7°C° 0.5 mm 4 m/S 631 mmHg 92%
    10:00 -7°C° 0.5 mm 4 m/S 631 mmHg 91%
    11:00 -5°C° 0.7 mm 4 m/S 631 mmHg 90%
    12:00 -5°C° 0.7 mm 4 m/S 631 mmHg 90%
    13:00 -5°C° 0.7 mm 4 m/S 631 mmHg 89%
    14:00 -6°C° 0.5 mm 3 m/S 631 mmHg 90%
    15:00 -6°C° 0.5 mm 3 m/S 631 mmHg 91%
    16:00 -6°C° 0.5 mm 3 m/S 631 mmHg 92%
    17:00 -6°C° 0.7 mm 3 m/S 631 mmHg 92%
    18:00 -6°C° 0.7 mm 3 m/S 631 mmHg 93%
    19:00 -7°C° 0.7 mm 3 m/S 631 mmHg 94%
    20:00 -7°C° 1.1 mm 3 m/S 631 mmHg 94%
    21:00 -7°C° 1.1 mm 3 m/S 631 mmHg 94%
    22:00 -7°C° 1.1 mm 3 m/S 631 mmHg 95%
    23:00 -7°C° 0.9 mm 3 m/S 631 mmHg 95%

    Morgen, 11 Dezember, Dienstag

    Zeit Temperatur Niederschläge Wind Luftdruck Luftfeuchtigkeit
    00:00 -7°C° 0.9 mm 3 m/S 631 mmHg 95%
    01:00 -8°C° 0.9 mm 3 m/S 632 mmHg 96%
    02:00 -8°C° 0.6 mm 3 m/S 631 mmHg 96%
    03:00 -8°C° 0.6 mm 3 m/S 631 mmHg 96%
    04:00 -8°C° 0.6 mm 2 m/S 631 mmHg 96%
    05:00 -8°C° 0.3 mm 2 m/S 631 mmHg 95%
    06:00 -8°C° 0.3 mm 2 m/S 631 mmHg 95%
    07:00 -8°C° 0.3 mm 2 m/S 631 mmHg 94%
    08:00 -8°C° 0.3 mm 2 m/S 631 mmHg 93%
    09:00 -8°C° 0.3 mm 2 m/S 631 mmHg 92%
    10:00 -7°C° 0.3 mm 2 m/S 632 mmHg 90%
    11:00 -7°C° 0.2 mm 2 m/S 632 mmHg 89%
    12:00 -7°C° 0.2 mm 2 m/S 631 mmHg 87%
    13:00 -6°C° 0.2 mm 2 m/S 631 mmHg 85%
    14:00 -7°C° 0.1 mm 2 m/S 631 mmHg 87%
    15:00 -8°C° 0.1 mm 2 m/S 631 mmHg 89%
    16:00 -8°C° 0.1 mm 2 m/S 631 mmHg 91%
    17:00 -10°C° 0.1 mm 2 m/S 631 mmHg 92%
    18:00 -12°C° 0.1 mm 2 m/S 631 mmHg 92%
    19:00 -13°C° 0.1 mm 2 m/S 630 mmHg 93%
    20:00 -13°C° 0 mm 2 m/S 630 mmHg 92%
    21:00 -14°C° 0 mm 2 m/S 630 mmHg 90%
    22:00 -14°C° 0 mm 2 m/S 630 mmHg 89%
    23:00 -14°C° 0 mm 2 m/S 630 mmHg 88%

    übermorgen, 12 Dezember, Mittwoch

    Zeit Temperatur Niederschläge Wind Luftdruck Luftfeuchtigkeit
    00:00 -15°C° 0 mm 2 m/S 630 mmHg 87%
    01:00 -15°C° 0 mm 2 m/S 630 mmHg 86%
    02:00 -15°C° 0 mm 2 m/S 630 mmHg 86%
    03:00 -15°C° 0 mm 2 m/S 629 mmHg 85%
    04:00 -13°C° 0 mm 1 m/S 629 mmHg 84%
    05:00 -15°C° 0 mm 2 m/S 629 mmHg 83%
    06:00 -16°C° 0 mm 2 m/S 629 mmHg 81%
    07:00 -16°C° 0 mm 2 m/S 629 mmHg 80%
    08:00 -12°C° 0 mm 1 m/S 630 mmHg 79%
    09:00 -10°C° 0 mm 1 m/S 630 mmHg 79%
    10:00 -8°C° 0 mm 1 m/S 631 mmHg 78%
    11:00 -7°C° 0 mm 1 m/S 631 mmHg 74%
    12:00 -6°C° 0 mm 1 m/S 631 mmHg 71%
    13:00 -4°C° 0 mm 0 m/S 631 mmHg 67%
    14:00 -6°C° 0 mm 0 m/S 630 mmHg 72%
    15:00 -7°C° 0 mm 0 m/S 629 mmHg 77%
    16:00 -9°C° 0 mm 0 m/S 628 mmHg 82%
    17:00 -9°C° 0 mm 1 m/S 628 mmHg 81%
    18:00 -10°C° 0 mm 1 m/S 628 mmHg 80%
    19:00 -11°C° 0 mm 1 m/S 628 mmHg 78%
    20:00 -11°C° 0 mm 1 m/S 628 mmHg 77%
    21:00 -10°C° 0 mm 1 m/S 628 mmHg 75%
    22:00 -12°C° 0 mm 2 m/S 628 mmHg 74%
    23:00 -12°C° 0 mm 2 m/S 628 mmHg 75%

    13 Dezember, Donnerstag

    Zeit Temperatur Niederschläge Wind Luftdruck Luftfeuchtigkeit
    00:00 -12°C° 0 mm 2 m/S 628 mmHg 76%
    01:00 -12°C° 0 mm 2 m/S 628 mmHg 77%
    02:00 -12°C° 0 mm 2 m/S 628 mmHg 77%
    03:00 -12°C° 0 mm 2 m/S 627 mmHg 78%
    04:00 -12°C° 0 mm 2 m/S 627 mmHg 79%
    05:00 -12°C° 0 mm 2 m/S 627 mmHg 79%
    06:00 -12°C° 0 mm 2 m/S 627 mmHg 79%
    07:00 -12°C° 0 mm 2 m/S 627 mmHg 78%
    08:00 -10°C° 0 mm 2 m/S 627 mmHg 79%
    09:00 -9°C° 0 mm 2 m/S 627 mmHg 79%
    10:00 -7°C° 0 mm 2 m/S 627 mmHg 79%
    11:00 -6°C° 0 mm 2 m/S 627 mmHg 78%
    12:00 -5°C° 0 mm 2 m/S 627 mmHg 78%
    13:00 -4°C° 0 mm 2 m/S 627 mmHg 77%
    14:00 -4°C° 0 mm 2 m/S 626 mmHg 80%
    15:00 -5°C° 0 mm 2 m/S 626 mmHg 82%
    16:00 -4°C° 0 mm 1 m/S 626 mmHg 85%
    17:00 -6°C° 0 mm 2 m/S 625 mmHg 84%
    18:00 -7°C° 0 mm 2 m/S 625 mmHg 83%
    19:00 -7°C° 0 mm 2 m/S 625 mmHg 82%
    20:00 -7°C° 0 mm 2 m/S 625 mmHg 82%
    21:00 -7°C° 0 mm 2 m/S 625 mmHg 83%
    22:00 -7°C° 0 mm 2 m/S 625 mmHg 83%
    23:00 -6°C° 0 mm 1 m/S 625 mmHg 83%

    14 Dezember, Freitag

    Zeit Temperatur Niederschläge Wind Luftdruck Luftfeuchtigkeit
    00:00 -6°C° 0 mm 1 m/S 625 mmHg 84%
    01:00 -6°C° 0 mm 1 m/S 625 mmHg 84%
    02:00 -4°C° 0.1 mm 1 m/S 625 mmHg 85%
    03:00 -4°C° 0.1 mm 1 m/S 625 mmHg 87%
    04:00 -4°C° 0.1 mm 1 m/S 625 mmHg 88%
    05:00 -4°C° 0.2 mm 1 m/S 625 mmHg 89%
    06:00 -4°C° 0.2 mm 1 m/S 625 mmHg 91%
    07:00 -5°C° 0.2 mm 2 m/S 626 mmHg 92%
    08:00 -5°C° 0.2 mm 2 m/S 626 mmHg 92%
    09:00 -4°C° 0.2 mm 2 m/S 626 mmHg 93%
    10:00 -3°C° 0.2 mm 2 m/S 627 mmHg 93%
    11:00 -3°C° 0.1 mm 2 m/S 627 mmHg 92%
    12:00 -2°C° 0.1 mm 2 m/S 627 mmHg 91%
    13:00 -2°C° 0.1 mm 2 m/S 627 mmHg 90%
    14:00 -2°C° 0.2 mm 2 m/S 627 mmHg 91%
    15:00 -3°C° 0.2 mm 2 m/S 628 mmHg 92%
    16:00 -3°C° 0.2 mm 2 m/S 628 mmHg 94%
    17:00 -4°C° 0.1 mm 2 m/S 628 mmHg 94%
    18:00 -4°C° 0.1 mm 1 m/S 627 mmHg 94%
    19:00 -6°C° 0.1 mm 1 m/S 627 mmHg 94%
    20:00 -6°C° 0 mm 1 m/S 627 mmHg 92%
    21:00 -7°C° 0 mm 1 m/S 627 mmHg 91%
    22:00 -7°C° 0 mm 1 m/S 627 mmHg 89%
    23:00 -7°C° 0 mm 1 m/S 627 mmHg 87%

    15 Dezember, Samstag

    Zeit Temperatur Niederschläge Wind Luftdruck Luftfeuchtigkeit
    00:00 -8°C° 0 mm 1 m/S 627 mmHg 85%
    01:00 -8°C° 0 mm 1 m/S 627 mmHg 83%
    02:00 -7°C° 0 mm 1 m/S 627 mmHg 82%
    03:00 -6°C° 0 mm 1 m/S 627 mmHg 81%
    04:00 -6°C° 0 mm 1 m/S 627 mmHg 80%
    05:00 -4°C° 0.1 mm 1 m/S 628 mmHg 81%
    06:00 -4°C° 0.1 mm 1 m/S 628 mmHg 82%
    07:00 -3°C° 0.1 mm 1 m/S 629 mmHg 83%
    08:00 -2°C° 0.2 mm 1 m/S 629 mmHg 85%
    09:00 -1°C° 0.2 mm 1 m/S 630 mmHg 86%
    10:00 -2°C° 0.2 mm 2 m/S 630 mmHg 88%
    11:00 0°C° 0.2 mm 1 m/S 630 mmHg 89%
    12:00 +1°C° 0.2 mm 1 m/S 630 mmHg 89%
    13:00 +2°C° 0.2 mm 1 m/S 631 mmHg 90%
    14:00 +1°C° 0.5 mm 2 m/S 631 mmHg 91%
    15:00 +1°C° 0.5 mm 2 m/S 631 mmHg 92%
    16:00 -1°C° 0.5 mm 2 m/S 631 mmHg 93%
    17:00 -1°C° 0.3 mm 2 m/S 631 mmHg 92%
    18:00 -2°C° 0.3 mm 2 m/S 631 mmHg 92%
    19:00 -2°C° 0.3 mm 2 m/S 631 mmHg 92%
    20:00 -2°C° 0.2 mm 2 m/S 631 mmHg 91%
    21:00 -2°C° 0.2 mm 2 m/S 631 mmHg 91%
    22:00 -1°C° 0.2 mm 2 m/S 631 mmHg 90%
    23:00 -1°C° 0.8 mm 2 m/S 631 mmHg 91%
    Mehr zeigen